Location: Ashton River Estates
(39.1762°N, 77.0261°W)
Time: 00:26:25
(UTC+00:00)

Cosmos 2263 Rocket - Pass Details

Date: 29 October 2020
Orbit: 822 x 850 km, 71.0° (Epoch: 03 December)

Event Time Altitude Azimuth Distance (km) Brightness Sun altitude
Rises 23:44:21 0° 349° (NNW) 3,419 5.5 -18.8°
Reaches altitude 10° 23:47:23 10° 4° (N) 2,482 4.6 -19.4°
Enters shadow 23:50:30 21° 36° (NE) 1,841 3.6 -20.0°
